Year,Month,Day,Hour,Minute,Value (Times are PST for windgust in km/hr)
2010,11,15,00,00,1.60
2010,11,15,00,01,1.60
2010,11,15,00,02,1.60
2010,11,15,00,03,1.60
2010,11,15,00,06,1.60
2010,11,15,00,07,4.80
2010,11,15,00,08,4.80
2010,11,15,00,09,1.60
2010,11,15,00,11,1.60
2010,11,15,00,18,1.60
2010,11,15,00,25,1.60
2010,11,15,00,26,1.60
2010,11,15,00,27,4.80
2010,11,15,00,28,3.20
2010,11,15,00,29,1.60
2010,11,15,00,30,3.20
2010,11,15,00,33,3.20
2010,11,15,00,36,1.60
2010,11,15,00,58,1.60
2010,11,15,00,59,1.60
2010,11,15,01,07,1.60
2010,11,15,01,09,3.20
2010,11,15,01,10,3.20
2010,11,15,01,16,1.60
2010,11,15,01,19,3.20
2010,11,15,01,20,4.80
2010,11,15,01,21,3.20
2010,11,15,01,23,8.10
2010,11,15,01,24,3.20
2010,11,15,01,25,6.40
2010,11,15,01,26,3.20
2010,11,15,01,27,11.30
2010,11,15,01,28,9.60
2010,11,15,01,29,1.60
2010,11,15,01,30,4.80
2010,11,15,01,31,8.10
2010,11,15,01,32,6.40
2010,11,15,01,33,1.60
2010,11,15,01,34,3.20
2010,11,15,01,35,1.60
2010,11,15,01,36,1.60
2010,11,15,01,37,1.60
2010,11,15,01,38,6.40
2010,11,15,01,39,4.80
2010,11,15,01,40,6.40
2010,11,15,01,42,1.60
2010,11,15,01,43,4.80
2010,11,15,01,44,6.40
2010,11,15,01,45,8.10
2010,11,15,01,46,4.80
2010,11,15,01,47,3.20
2010,11,15,01,48,3.20
2010,11,15,01,49,1.60
2010,11,15,01,50,4.80
2010,11,15,01,51,6.40
2010,11,15,01,52,4.80
2010,11,15,01,53,4.80
2010,11,15,01,54,6.40
2010,11,15,01,55,4.80
2010,11,15,01,56,6.40
2010,11,15,01,57,1.60
2010,11,15,01,58,1.60
2010,11,15,01,59,3.20
2010,11,15,02,00,4.80
2010,11,15,02,01,3.20
2010,11,15,02,02,8.10
2010,11,15,02,03,6.40
2010,11,15,02,04,4.80
2010,11,15,02,05,1.60
2010,11,15,02,06,6.40
2010,11,15,02,07,9.60
2010,11,15,02,08,8.10
2010,11,15,02,09,4.80
2010,11,15,02,10,6.40
2010,11,15,02,11,9.60
2010,11,15,02,12,8.10
2010,11,15,02,13,14.50
2010,11,15,02,14,9.60
2010,11,15,02,15,16.10
2010,11,15,02,16,9.60
2010,11,15,02,17,11.30
2010,11,15,02,18,8.10
2010,11,15,02,19,16.10
2010,11,15,02,20,9.60
2010,11,15,02,21,8.10
2010,11,15,02,22,6.40
2010,11,15,02,23,4.80
2010,11,15,02,24,14.50
2010,11,15,02,25,9.60
2010,11,15,02,26,16.10
2010,11,15,02,27,11.30
2010,11,15,02,28,8.10
2010,11,15,02,29,16.10
2010,11,15,02,30,16.10
2010,11,15,02,31,8.10
2010,11,15,02,32,9.60
2010,11,15,02,33,12.90
2010,11,15,02,34,16.10
2010,11,15,02,35,17.70
2010,11,15,02,36,11.30
2010,11,15,02,37,6.40
2010,11,15,02,38,11.30
2010,11,15,02,39,14.50
2010,11,15,02,40,11.30
2010,11,15,02,41,9.60
2010,11,15,02,42,9.60
2010,11,15,02,43,8.10
2010,11,15,02,44,8.10
2010,11,15,02,45,8.10
2010,11,15,02,46,6.40
2010,11,15,02,47,8.10
2010,11,15,02,48,9.60
2010,11,15,02,49,4.80
2010,11,15,02,50,6.40
2010,11,15,02,51,4.80
2010,11,15,02,52,6.40
2010,11,15,02,53,6.40
2010,11,15,02,54,6.40
2010,11,15,02,55,3.20
2010,11,15,02,56,6.40
2010,11,15,02,57,4.80
2010,11,15,02,58,6.40
2010,11,15,02,59,6.40
2010,11,15,03,00,6.40
2010,11,15,03,01,4.80
2010,11,15,03,02,4.80
2010,11,15,03,03,4.80
2010,11,15,03,04,6.40
2010,11,15,03,05,6.40
2010,11,15,03,06,6.40
2010,11,15,03,07,4.80
2010,11,15,03,08,6.40
2010,11,15,03,09,4.80
2010,11,15,03,10,8.10
2010,11,15,03,11,9.60
2010,11,15,03,12,4.80
2010,11,15,03,13,4.80
2010,11,15,03,14,4.80
2010,11,15,03,15,4.80
2010,11,15,03,16,3.20
2010,11,15,03,17,1.60
2010,11,15,03,18,8.10
2010,11,15,03,19,6.40
2010,11,15,03,20,8.10
2010,11,15,03,21,4.80
2010,11,15,03,22,4.80
2010,11,15,03,23,4.80
2010,11,15,03,24,6.40
2010,11,15,03,25,6.40
2010,11,15,03,26,3.20
2010,11,15,03,27,4.80
2010,11,15,03,28,4.80
2010,11,15,03,29,4.80
2010,11,15,03,30,3.20
2010,11,15,03,31,1.60
2010,11,15,03,32,4.80
2010,11,15,03,33,6.40
2010,11,15,03,34,4.80
2010,11,15,03,35,6.40
2010,11,15,03,36,6.40
2010,11,15,03,37,3.20
2010,11,15,03,38,3.20
2010,11,15,03,39,4.80
2010,11,15,03,40,4.80
2010,11,15,03,41,4.80
2010,11,15,03,42,6.40
2010,11,15,03,43,3.20
2010,11,15,03,44,4.80
2010,11,15,03,45,8.10
2010,11,15,03,46,4.80
2010,11,15,03,47,6.40
2010,11,15,03,48,3.20
2010,11,15,03,49,6.40
2010,11,15,03,50,6.40
2010,11,15,03,51,3.20
2010,11,15,03,52,6.40
2010,11,15,03,53,6.40
2010,11,15,03,54,4.80
2010,11,15,03,55,4.80
2010,11,15,03,56,4.80
2010,11,15,03,57,3.20
2010,11,15,03,58,1.60
2010,11,15,03,59,1.60
2010,11,15,04,00,6.40
2010,11,15,04,01,6.40
2010,11,15,04,02,4.80
2010,11,15,04,03,4.80
2010,11,15,04,04,4.80
2010,11,15,04,05,4.80
2010,11,15,04,06,3.20
2010,11,15,04,07,6.40
2010,11,15,04,08,4.80
2010,11,15,04,09,1.60
2010,11,15,04,10,3.20
2010,11,15,04,11,1.60
2010,11,15,04,13,6.40
2010,11,15,04,14,4.80
2010,11,15,04,15,3.20
2010,11,15,04,16,4.80
2010,11,15,04,17,4.80
2010,11,15,04,18,1.60
2010,11,15,04,19,1.60
2010,11,15,04,20,4.80
2010,11,15,04,22,1.60
2010,11,15,04,24,1.60
2010,11,15,04,26,6.40
2010,11,15,04,27,6.40
2010,11,15,04,28,1.60
2010,11,15,04,29,3.20
2010,11,15,04,31,3.20
2010,11,15,04,32,3.20
2010,11,15,04,33,1.60
2010,11,15,04,34,3.20
2010,11,15,04,35,1.60
2010,11,15,04,36,6.40
2010,11,15,04,37,4.80
2010,11,15,04,38,1.60
2010,11,15,04,39,3.20
2010,11,15,04,40,3.20
2010,11,15,04,41,3.20
2010,11,15,04,42,3.20
2010,11,15,04,43,3.20
2010,11,15,04,44,1.60
2010,11,15,04,46,1.60
2010,11,15,04,47,1.60
2010,11,15,04,48,3.20
2010,11,15,04,49,1.60
2010,11,15,04,53,1.60
2010,11,15,04,54,4.80
2010,11,15,04,58,1.60
2010,11,15,05,04,1.60
2010,11,15,05,06,1.60
2010,11,15,05,07,3.20
2010,11,15,05,09,3.20
2010,11,15,05,10,3.20
2010,11,15,05,11,1.60
2010,11,15,05,12,3.20
2010,11,15,05,13,3.20
2010,11,15,05,14,3.20
2010,11,15,05,15,6.40
2010,11,15,05,16,3.20
2010,11,15,05,17,4.80
2010,11,15,05,18,6.40
2010,11,15,05,19,4.80
2010,11,15,05,20,14.50
2010,11,15,05,21,8.10
2010,11,15,05,22,6.40
2010,11,15,05,23,8.10
2010,11,15,05,24,4.80
2010,11,15,05,25,4.80
2010,11,15,05,26,8.10
2010,11,15,05,27,3.20
2010,11,15,05,28,4.80
2010,11,15,05,29,3.20
2010,11,15,05,30,8.10
2010,11,15,05,31,8.10
2010,11,15,05,32,9.60
2010,11,15,05,34,3.20
2010,11,15,05,35,6.40
2010,11,15,05,36,9.60
2010,11,15,05,37,9.60
2010,11,15,05,38,6.40
2010,11,15,05,39,11.30
2010,11,15,05,40,9.60
2010,11,15,05,41,8.10
2010,11,15,05,42,8.10
2010,11,15,05,43,6.40
2010,11,15,05,44,11.30
2010,11,15,05,45,6.40
2010,11,15,05,46,11.30
2010,11,15,05,47,9.60
2010,11,15,05,48,11.30
2010,11,15,05,49,14.50
2010,11,15,05,50,9.60
2010,11,15,05,51,6.40
2010,11,15,05,52,9.60
2010,11,15,05,53,9.60
2010,11,15,05,54,9.60
2010,11,15,05,55,9.60
2010,11,15,05,56,14.50
2010,11,15,05,57,8.10
2010,11,15,05,58,12.90
2010,11,15,05,59,12.90
2010,11,15,06,00,8.10
2010,11,15,06,01,11.30
2010,11,15,06,02,9.60
2010,11,15,06,03,14.50
2010,11,15,06,04,14.50
2010,11,15,06,05,16.10
2010,11,15,06,06,16.10
2010,11,15,06,07,20.90
2010,11,15,06,08,11.30
2010,11,15,06,09,16.10
2010,11,15,06,10,16.10
2010,11,15,06,11,11.30
2010,11,15,06,12,16.10
2010,11,15,06,13,16.10
2010,11,15,06,14,9.60
2010,11,15,06,15,8.10
2010,11,15,06,16,16.10
2010,11,15,06,17,14.50
2010,11,15,06,18,20.90
2010,11,15,06,19,11.30
2010,11,15,06,20,8.10
2010,11,15,06,21,9.60
2010,11,15,06,22,9.60
2010,11,15,06,23,9.60
2010,11,15,06,24,8.10
2010,11,15,06,25,8.10
2010,11,15,06,26,9.60
2010,11,15,06,27,9.60
2010,11,15,06,28,8.10
2010,11,15,06,29,14.50
2010,11,15,06,30,6.40
2010,11,15,06,31,12.90
2010,11,15,06,32,9.60
2010,11,15,06,33,11.30
2010,11,15,06,34,9.60
2010,11,15,06,35,8.10
2010,11,15,06,36,17.70
2010,11,15,06,37,17.70
2010,11,15,06,38,6.40
2010,11,15,06,39,9.60
2010,11,15,06,40,9.60
2010,11,15,06,41,11.30
2010,11,15,06,42,8.10
2010,11,15,06,43,8.10
2010,11,15,06,44,16.10
2010,11,15,06,45,12.90
2010,11,15,06,46,14.50
2010,11,15,06,47,16.10
2010,11,15,06,48,4.80
2010,11,15,06,49,9.60
2010,11,15,06,50,11.30
2010,11,15,06,51,9.60
2010,11,15,06,52,4.80
2010,11,15,06,53,6.40
2010,11,15,06,54,9.60
2010,11,15,06,55,9.60
2010,11,15,06,56,16.10
2010,11,15,06,57,9.60
2010,11,15,06,58,12.90
2010,11,15,06,59,8.10
2010,11,15,07,00,9.60
2010,11,15,07,01,9.60
2010,11,15,07,02,9.60
2010,11,15,07,03,6.40
2010,11,15,07,04,3.20
2010,11,15,07,05,4.80
2010,11,15,07,07,4.80
2010,11,15,07,08,4.80
2010,11,15,07,09,4.80
2010,11,15,07,10,4.80
2010,11,15,07,11,6.40
2010,11,15,07,12,6.40
2010,11,15,07,13,11.30
2010,11,15,07,14,12.90
2010,11,15,07,15,9.60
2010,11,15,07,16,8.10
2010,11,15,07,17,8.10
2010,11,15,07,18,6.40
2010,11,15,07,19,6.40
2010,11,15,07,20,1.60
2010,11,15,07,21,9.60
2010,11,15,07,22,6.40
2010,11,15,07,23,8.10
2010,11,15,07,24,6.40
2010,11,15,07,25,9.60
2010,11,15,07,26,9.60
2010,11,15,07,27,6.40
2010,11,15,07,28,4.80
2010,11,15,07,29,6.40
2010,11,15,07,30,1.60
2010,11,15,07,31,6.40
2010,11,15,07,32,4.80
2010,11,15,07,33,9.60
2010,11,15,07,34,11.30
2010,11,15,07,35,8.10
2010,11,15,07,36,17.70
2010,11,15,07,37,8.10
2010,11,15,07,38,6.40
2010,11,15,07,39,9.60
2010,11,15,07,40,9.60
2010,11,15,07,41,11.30
2010,11,15,07,42,11.30
2010,11,15,07,43,14.50
2010,11,15,07,44,16.10
2010,11,15,07,45,16.10
2010,11,15,07,46,11.30
2010,11,15,07,47,16.10
2010,11,15,07,48,8.10
2010,11,15,07,49,22.50
2010,11,15,07,50,11.30
2010,11,15,07,51,8.10
2010,11,15,07,52,12.90
2010,11,15,07,53,6.40
2010,11,15,07,54,3.20
2010,11,15,07,55,14.50
2010,11,15,07,56,6.40
2010,11,15,07,57,9.60
2010,11,15,07,58,3.20
2010,11,15,07,59,6.40
2010,11,15,08,00,6.40
2010,11,15,08,01,8.10
2010,11,15,08,02,6.40
2010,11,15,08,03,4.80
2010,11,15,08,04,4.80
2010,11,15,08,05,6.40
2010,11,15,08,06,8.10
2010,11,15,08,07,4.80
2010,11,15,08,08,6.40
2010,11,15,08,09,6.40
2010,11,15,08,10,4.80
2010,11,15,08,12,4.80
2010,11,15,08,13,6.40
2010,11,15,08,14,3.20
2010,11,15,08,23,16.10
2010,11,15,08,24,12.90
2010,11,15,08,25,6.40
2010,11,15,08,26,6.40
2010,11,15,08,27,9.60
2010,11,15,08,28,4.80
2010,11,15,08,30,3.20
2010,11,15,08,31,3.20
2010,11,15,08,34,1.60
2010,11,15,08,35,1.60
2010,11,15,08,36,1.60
2010,11,15,08,45,1.60
2010,11,15,08,50,3.20
2010,11,15,08,51,3.20
2010,11,15,08,52,4.80
2010,11,15,08,53,3.20
2010,11,15,08,54,4.80
2010,11,15,08,55,6.40
2010,11,15,08,56,6.40
2010,11,15,08,57,8.10
2010,11,15,08,58,8.10
2010,11,15,08,59,6.40
2010,11,15,09,00,9.60
2010,11,15,09,01,8.10
2010,11,15,09,02,6.40
2010,11,15,09,03,8.10
2010,11,15,09,04,11.30
2010,11,15,09,05,17.70
2010,11,15,09,06,9.60
2010,11,15,09,07,6.40
2010,11,15,09,08,8.10
2010,11,15,09,09,11.30
2010,11,15,09,10,6.40
2010,11,15,09,11,9.60
2010,11,15,09,12,4.80
2010,11,15,09,13,14.50
2010,11,15,09,14,3.20
2010,11,15,09,15,8.10
2010,11,15,09,16,11.30
2010,11,15,09,17,9.60
2010,11,15,09,18,14.50
2010,11,15,09,19,8.10
2010,11,15,09,20,6.40
2010,11,15,09,21,6.40
2010,11,15,09,22,8.10
2010,11,15,09,23,6.40
2010,11,15,09,24,8.10
2010,11,15,09,25,8.10
2010,11,15,09,26,8.10
2010,11,15,09,27,9.60
2010,11,15,09,28,4.80
2010,11,15,09,29,8.10
2010,11,15,09,30,9.60
2010,11,15,09,31,8.10
2010,11,15,09,32,4.80
2010,11,15,09,33,6.40
2010,11,15,09,34,6.40
2010,11,15,09,35,6.40
2010,11,15,09,36,6.40
2010,11,15,09,37,3.20
2010,11,15,09,38,6.40
2010,11,15,09,39,3.20
2010,11,15,09,40,3.20
2010,11,15,09,41,3.20
2010,11,15,09,42,4.80
2010,11,15,09,43,4.80
2010,11,15,09,44,1.60
2010,11,15,09,45,1.60
2010,11,15,09,46,3.20
2010,11,15,09,48,1.60
2010,11,15,09,49,3.20
2010,11,15,09,50,8.10
2010,11,15,09,51,1.60
2010,11,15,09,52,3.20
2010,11,15,09,53,3.20
2010,11,15,09,54,3.20
2010,11,15,09,55,1.60
2010,11,15,09,56,3.20
2010,11,15,09,57,4.80
2010,11,15,09,58,6.40
2010,11,15,09,59,3.20
2010,11,15,10,00,3.20
2010,11,15,10,01,9.60
2010,11,15,10,02,3.20
2010,11,15,10,03,3.20
2010,11,15,10,04,4.80
2010,11,15,10,05,3.20
2010,11,15,10,06,6.40
2010,11,15,10,07,8.10
2010,11,15,10,08,8.10
2010,11,15,10,09,9.60
2010,11,15,10,10,6.40
2010,11,15,10,11,16.10
2010,11,15,10,12,16.10
2010,11,15,10,13,17.70
2010,11,15,10,14,9.60
2010,11,15,10,15,8.10
2010,11,15,10,16,11.30
2010,11,15,10,17,9.60
2010,11,15,10,18,4.80
2010,11,15,10,19,8.10
2010,11,15,10,20,3.20
2010,11,15,10,21,6.40
2010,11,15,10,22,8.10
2010,11,15,10,23,8.10
2010,11,15,10,24,4.80
2010,11,15,10,25,3.20
2010,11,15,10,27,4.80
2010,11,15,10,28,8.10
2010,11,15,10,29,4.80
2010,11,15,10,30,1.60
2010,11,15,10,31,3.20
2010,11,15,10,33,1.60
2010,11,15,10,34,3.20
2010,11,15,10,35,4.80
2010,11,15,10,36,4.80
2010,11,15,10,37,4.80
2010,11,15,10,38,6.40
2010,11,15,10,39,6.40
2010,11,15,10,40,6.40
2010,11,15,10,41,1.60
2010,11,15,10,42,3.20
2010,11,15,10,43,8.10
2010,11,15,10,44,3.20
2010,11,15,10,45,4.80
2010,11,15,10,46,4.80
2010,11,15,10,47,4.80
2010,11,15,10,48,4.80
2010,11,15,10,49,4.80
2010,11,15,10,50,3.20
2010,11,15,10,51,6.40
2010,11,15,10,52,3.20
2010,11,15,10,53,4.80
2010,11,15,10,54,6.40
2010,11,15,10,55,3.20
2010,11,15,10,56,8.10
2010,11,15,10,57,4.80
2010,11,15,10,58,6.40
2010,11,15,10,59,6.40
2010,11,15,11,00,6.40
2010,11,15,11,01,6.40
2010,11,15,11,02,4.80
2010,11,15,11,03,9.60
2010,11,15,11,04,8.10
2010,11,15,11,05,14.50
2010,11,15,11,06,9.60
2010,11,15,11,07,9.60
2010,11,15,11,08,8.10
2010,11,15,11,09,11.30
2010,11,15,11,10,11.30
2010,11,15,11,11,6.40
2010,11,15,11,12,8.10
2010,11,15,11,13,8.10
2010,11,15,11,14,11.30
2010,11,15,11,15,6.40
2010,11,15,11,16,8.10
2010,11,15,11,17,8.10
2010,11,15,11,18,17.70
2010,11,15,11,19,11.30
2010,11,15,11,20,6.40
2010,11,15,11,21,11.30
2010,11,15,11,22,4.80
2010,11,15,11,23,4.80
2010,11,15,11,24,6.40
2010,11,15,11,25,9.60
2010,11,15,11,26,8.10
2010,11,15,11,27,6.40
2010,11,15,11,28,4.80
2010,11,15,11,29,1.60
2010,11,15,11,30,3.20
2010,11,15,11,31,4.80
2010,11,15,11,32,3.20
2010,11,15,11,33,3.20
2010,11,15,11,34,4.80
2010,11,15,11,35,4.80
2010,11,15,11,36,4.80
2010,11,15,11,37,4.80
2010,11,15,11,38,1.60
2010,11,15,11,39,6.40
2010,11,15,11,40,9.60
2010,11,15,11,41,6.40
2010,11,15,11,42,4.80
2010,11,15,11,43,4.80
2010,11,15,11,44,6.40
2010,11,15,11,45,6.40
2010,11,15,11,46,9.60
2010,11,15,11,47,6.40
2010,11,15,11,48,8.10
2010,11,15,11,49,14.50
2010,11,15,11,50,9.60
2010,11,15,11,51,6.40
2010,11,15,11,52,4.80
2010,11,15,11,53,8.10
2010,11,15,11,54,3.20
2010,11,15,11,55,9.60
2010,11,15,11,56,4.80
2010,11,15,11,57,6.40
2010,11,15,11,58,6.40
2010,11,15,11,59,4.80
2010,11,15,12,00,3.20
2010,11,15,12,01,6.40
2010,11,15,12,02,4.80
2010,11,15,12,03,4.80
2010,11,15,12,04,3.20
2010,11,15,12,05,1.60
2010,11,15,12,06,3.20
2010,11,15,12,07,4.80
2010,11,15,12,08,8.10
2010,11,15,12,09,4.80
2010,11,15,12,10,6.40
2010,11,15,12,11,6.40
2010,11,15,12,12,4.80
2010,11,15,12,13,1.60
2010,11,15,12,14,4.80
2010,11,15,12,15,4.80
2010,11,15,12,16,4.80
2010,11,15,12,17,1.60
2010,11,15,12,18,4.80
2010,11,15,12,19,6.40
2010,11,15,12,20,6.40
2010,11,15,12,21,4.80
2010,11,15,12,22,4.80
2010,11,15,12,23,4.80
2010,11,15,12,24,3.20
2010,11,15,12,25,6.40
2010,11,15,12,26,1.60
2010,11,15,12,27,1.60
2010,11,15,12,28,8.10
2010,11,15,12,29,6.40
2010,11,15,12,30,4.80
2010,11,15,12,31,4.80
2010,11,15,12,32,6.40
2010,11,15,12,33,1.60
2010,11,15,12,34,3.20
2010,11,15,12,35,6.40
2010,11,15,12,36,1.60
2010,11,15,12,37,4.80
2010,11,15,12,38,3.20
2010,11,15,12,39,3.20
2010,11,15,12,40,1.60
2010,11,15,12,41,1.60
2010,11,15,12,42,3.20
2010,11,15,12,43,1.60
2010,11,15,12,44,4.80
2010,11,15,12,45,1.60
2010,11,15,12,46,3.20
2010,11,15,12,47,1.60
2010,11,15,12,48,1.60
2010,11,15,12,50,1.60
2010,11,15,12,51,6.40
2010,11,15,12,52,14.50
2010,11,15,12,53,14.50
2010,11,15,12,54,11.30
2010,11,15,12,55,14.50
2010,11,15,12,56,12.90
2010,11,15,12,57,8.10
2010,11,15,12,58,16.10
2010,11,15,12,59,9.60
2010,11,15,13,00,9.60
2010,11,15,13,01,17.70
2010,11,15,13,02,9.60
2010,11,15,13,03,6.40
2010,11,15,13,04,11.30
2010,11,15,13,05,19.30
2010,11,15,13,06,20.90
2010,11,15,13,07,22.50
2010,11,15,13,08,25.70
2010,11,15,13,09,16.10
2010,11,15,13,10,20.90
2010,11,15,13,11,19.30
2010,11,15,13,12,9.60
2010,11,15,13,13,14.50
2010,11,15,13,14,14.50
2010,11,15,13,15,14.50
2010,11,15,13,16,19.30
2010,11,15,13,17,20.90
2010,11,15,13,18,19.30
2010,11,15,13,19,19.30
2010,11,15,13,20,14.50
2010,11,15,13,21,20.90
2010,11,15,13,22,16.10
2010,11,15,13,23,24.20
2010,11,15,13,24,35.40
2010,11,15,13,25,24.20
2010,11,15,13,26,16.10
2010,11,15,13,27,17.70
2010,11,15,13,28,14.50
2010,11,15,13,29,9.60
2010,11,15,13,30,14.50
2010,11,15,13,31,22.50
2010,11,15,13,32,20.90
2010,11,15,13,33,24.20
2010,11,15,13,34,16.10
2010,11,15,13,35,12.90
2010,11,15,13,36,14.50
2010,11,15,13,37,22.50
2010,11,15,13,38,29.00
2010,11,15,13,39,19.30
2010,11,15,13,40,17.70
2010,11,15,13,41,25.70
2010,11,15,13,42,27.40
2010,11,15,13,43,20.90
2010,11,15,13,44,22.50
2010,11,15,13,45,14.50
2010,11,15,13,46,14.50
2010,11,15,13,47,25.70
2010,11,15,13,48,20.90
2010,11,15,13,49,25.70
2010,11,15,13,50,27.40
2010,11,15,13,51,25.70
2010,11,15,13,52,25.70
2010,11,15,13,53,22.50
2010,11,15,13,54,16.10
2010,11,15,13,55,29.00
2010,11,15,13,56,29.00
2010,11,15,13,57,24.20
2010,11,15,13,58,29.00
2010,11,15,13,59,19.30
2010,11,15,14,00,24.20
2010,11,15,14,01,22.50
2010,11,15,14,02,25.70
2010,11,15,14,03,20.90
2010,11,15,14,04,20.90
2010,11,15,14,05,9.60
2010,11,15,14,06,14.50
2010,11,15,14,07,24.20
2010,11,15,14,08,19.30
2010,11,15,14,09,19.30
2010,11,15,14,10,20.90
2010,11,15,14,11,14.50
2010,11,15,14,12,17.70
2010,11,15,14,13,14.50
2010,11,15,14,14,27.40
2010,11,15,14,15,30.60
2010,11,15,14,16,24.20
2010,11,15,14,17,20.90
2010,11,15,14,18,27.40
2010,11,15,14,19,32.20
2010,11,15,14,20,17.70
2010,11,15,14,21,17.70
2010,11,15,14,22,29.00
2010,11,15,14,23,16.10
2010,11,15,14,24,19.30
2010,11,15,14,25,20.90
2010,11,15,14,26,20.90
2010,11,15,14,27,32.20
2010,11,15,14,28,20.90
2010,11,15,14,29,17.70
2010,11,15,14,30,16.10
2010,11,15,14,31,16.10
2010,11,15,14,32,19.30
2010,11,15,14,33,32.20
2010,11,15,14,34,25.70
2010,11,15,14,35,24.20
2010,11,15,14,36,16.10
2010,11,15,14,37,17.70
2010,11,15,14,38,19.30
2010,11,15,14,39,24.20
2010,11,15,14,40,11.30
2010,11,15,14,41,17.70
2010,11,15,14,42,22.50
2010,11,15,14,43,20.90
2010,11,15,14,44,19.30
2010,11,15,14,45,17.70
2010,11,15,14,46,19.30
2010,11,15,14,47,25.70
2010,11,15,14,48,20.90
2010,11,15,14,49,11.30
2010,11,15,14,50,8.10
2010,11,15,14,51,11.30
2010,11,15,14,52,20.90
2010,11,15,14,53,11.30
2010,11,15,14,54,17.70
2010,11,15,14,55,27.40
2010,11,15,14,56,16.10
2010,11,15,14,57,14.50
2010,11,15,14,58,19.30
2010,11,15,14,59,16.10
2010,11,15,15,00,14.50
2010,11,15,15,01,14.50
2010,11,15,15,02,19.30
2010,11,15,15,03,19.30
2010,11,15,15,04,19.30
2010,11,15,15,05,11.30
2010,11,15,15,06,14.50
2010,11,15,15,07,20.90
2010,11,15,15,08,14.50
2010,11,15,15,09,11.30
2010,11,15,15,10,12.90
2010,11,15,15,11,14.50
2010,11,15,15,12,25.70
2010,11,15,15,13,17.70
2010,11,15,15,14,29.00
2010,11,15,15,15,19.30
2010,11,15,15,16,20.90
2010,11,15,15,17,32.20
2010,11,15,15,18,20.90
2010,11,15,15,19,27.40
2010,11,15,15,20,32.20
2010,11,15,15,21,24.20
2010,11,15,15,22,20.90
2010,11,15,15,23,20.90
2010,11,15,15,24,11.30
2010,11,15,15,25,30.60
2010,11,15,15,26,24.20
2010,11,15,15,27,19.30
2010,11,15,15,28,14.50
2010,11,15,15,29,22.50
2010,11,15,15,30,17.70
2010,11,15,15,31,20.90
2010,11,15,15,32,25.70
2010,11,15,15,33,19.30
2010,11,15,15,34,16.10
2010,11,15,15,35,22.50
2010,11,15,15,36,22.50
2010,11,15,15,37,32.20
2010,11,15,15,38,27.40
2010,11,15,15,39,25.70
2010,11,15,15,40,30.60
2010,11,15,15,41,25.70
2010,11,15,15,42,40.20
2010,11,15,15,43,19.30
2010,11,15,15,44,19.30
2010,11,15,15,45,27.40
2010,11,15,15,46,16.10
2010,11,15,15,47,41.80
2010,11,15,15,48,30.60
2010,11,15,15,49,27.40
2010,11,15,15,50,19.30
2010,11,15,15,51,11.30
2010,11,15,15,52,22.50
2010,11,15,15,53,16.10
2010,11,15,15,54,40.20
2010,11,15,15,55,33.80
2010,11,15,15,56,25.70
2010,11,15,15,57,20.90
2010,11,15,15,58,41.80
2010,11,15,15,59,32.20
2010,11,15,16,00,24.20
2010,11,15,16,01,37.00
2010,11,15,16,02,32.20
2010,11,15,16,03,30.60
2010,11,15,16,04,19.30
2010,11,15,16,05,19.30
2010,11,15,16,06,19.30
2010,11,15,16,07,40.20
2010,11,15,16,08,27.40
2010,11,15,16,09,27.40
2010,11,15,16,10,19.30
2010,11,15,16,11,27.40
2010,11,15,16,12,30.60
2010,11,15,16,13,19.30
2010,11,15,16,14,32.20
2010,11,15,16,15,32.20
2010,11,15,16,16,38.60
2010,11,15,16,17,29.00
2010,11,15,16,18,20.90
2010,11,15,16,19,37.00
2010,11,15,16,20,29.00
2010,11,15,16,21,33.80
2010,11,15,16,22,25.70
2010,11,15,16,23,30.60
2010,11,15,16,24,33.80
2010,11,15,16,25,38.60
2010,11,15,16,26,41.80
2010,11,15,16,27,30.60
2010,11,15,16,28,33.80
2010,11,15,16,29,29.00
2010,11,15,16,30,25.70
2010,11,15,16,31,33.80
2010,11,15,16,32,29.00
2010,11,15,16,33,29.00
2010,11,15,16,34,32.20
2010,11,15,16,35,16.10
2010,11,15,16,36,20.90
2010,11,15,16,37,27.40
2010,11,15,16,38,37.00
2010,11,15,16,39,43.50
2010,11,15,16,40,33.80
2010,11,15,16,41,25.70
2010,11,15,16,42,37.00
2010,11,15,16,43,29.00
2010,11,15,16,44,32.20
2010,11,15,16,45,24.20
2010,11,15,16,46,30.60
2010,11,15,16,47,32.20
2010,11,15,16,48,30.60
2010,11,15,16,49,30.60
2010,11,15,16,50,27.40
2010,11,15,16,51,32.20
2010,11,15,16,52,19.30
2010,11,15,16,53,27.40
2010,11,15,16,54,20.90
2010,11,15,16,55,16.10
2010,11,15,16,56,24.20
2010,11,15,16,57,12.90
2010,11,15,16,58,25.70
2010,11,15,16,59,33.80
2010,11,15,17,00,30.60
2010,11,15,17,01,25.70
2010,11,15,17,02,46.70
2010,11,15,17,03,25.70
2010,11,15,17,04,24.20
2010,11,15,17,05,22.50
2010,11,15,17,06,25.70
2010,11,15,17,07,20.90
2010,11,15,17,08,32.20
2010,11,15,17,09,29.00
2010,11,15,17,10,27.40
2010,11,15,17,11,43.50
2010,11,15,17,12,33.80
2010,11,15,17,13,24.20
2010,11,15,17,14,25.70
2010,11,15,17,15,43.50
2010,11,15,17,16,32.20
2010,11,15,17,17,35.40
2010,11,15,17,18,32.20
2010,11,15,17,19,37.00
2010,11,15,17,20,49.90
2010,11,15,17,21,30.60
2010,11,15,17,22,19.30
2010,11,15,17,23,24.20
2010,11,15,17,24,30.60
2010,11,15,17,25,22.50
2010,11,15,17,26,27.40
2010,11,15,17,27,30.60
2010,11,15,17,28,46.70
2010,11,15,17,29,25.70
2010,11,15,17,30,33.80
2010,11,15,17,31,35.40
2010,11,15,17,32,33.80
2010,11,15,17,33,22.50
2010,11,15,17,34,29.00
2010,11,15,17,35,32.20
2010,11,15,17,36,24.20
2010,11,15,17,37,22.50
2010,11,15,17,38,30.60
2010,11,15,17,39,53.10
2010,11,15,17,40,24.20
2010,11,15,17,41,29.00
2010,11,15,17,42,33.80
2010,11,15,17,43,32.20
2010,11,15,17,44,29.00
2010,11,15,17,45,25.70
2010,11,15,17,46,29.00
2010,11,15,17,47,41.80
2010,11,15,17,48,22.50
2010,11,15,17,49,20.90
2010,11,15,17,50,25.70
2010,11,15,17,51,12.90
2010,11,15,17,52,32.20
2010,11,15,17,53,22.50
2010,11,15,17,54,41.80
2010,11,15,17,55,33.80
2010,11,15,17,56,35.40
2010,11,15,17,57,29.00
2010,11,15,17,58,16.10
2010,11,15,17,59,19.30
2010,11,15,18,00,30.60
2010,11,15,18,01,22.50
2010,11,15,18,02,32.20
2010,11,15,18,03,20.90
2010,11,15,18,04,22.50
2010,11,15,18,05,29.00
2010,11,15,18,06,30.60
2010,11,15,18,07,19.30
2010,11,15,18,08,16.10
2010,11,15,18,09,19.30
2010,11,15,18,10,14.50
2010,11,15,18,11,24.20
2010,11,15,18,12,16.10
2010,11,15,18,13,43.50
2010,11,15,18,14,19.30
2010,11,15,18,15,20.90
2010,11,15,18,16,11.30
2010,11,15,18,17,24.20
2010,11,15,18,18,35.40
2010,11,15,18,19,49.90
2010,11,15,18,20,22.50
2010,11,15,18,21,37.00
2010,11,15,18,22,48.30
2010,11,15,18,23,27.40
2010,11,15,18,24,33.80
2010,11,15,18,25,46.70
2010,11,15,18,26,29.00
2010,11,15,18,27,27.40
2010,11,15,18,28,43.50
2010,11,15,18,29,24.20
2010,11,15,18,30,37.00
2010,11,15,18,31,51.50
2010,11,15,18,32,32.20
2010,11,15,18,33,22.50
2010,11,15,18,34,40.20
2010,11,15,18,35,51.50
2010,11,15,18,36,24.20
2010,11,15,18,37,45.10
2010,11,15,18,38,45.10
2010,11,15,18,39,40.20
2010,11,15,18,40,40.20
2010,11,15,18,41,35.40
2010,11,15,18,42,40.20
2010,11,15,18,43,43.50
2010,11,15,18,44,37.00
2010,11,15,18,45,41.80
2010,11,15,18,46,35.40
2010,11,15,18,47,40.20
2010,11,15,18,48,41.80
2010,11,15,18,49,25.70
2010,11,15,18,50,27.40
2010,11,15,18,51,38.60
2010,11,15,18,52,46.70
2010,11,15,18,53,53.10
2010,11,15,18,54,37.00
2010,11,15,18,55,53.10
2010,11,15,18,56,43.50
2010,11,15,18,57,37.00
2010,11,15,18,58,45.10
2010,11,15,18,59,53.10
2010,11,15,19,00,46.70
2010,11,15,19,01,64.40
2010,11,15,19,02,35.40
2010,11,15,19,03,33.80
2010,11,15,19,04,51.50
2010,11,15,19,05,61.20
2010,11,15,19,06,41.80
2010,11,15,19,07,33.80
2010,11,15,19,08,30.60
2010,11,15,19,09,32.20
2010,11,15,19,10,38.60
2010,11,15,19,11,43.50
2010,11,15,19,12,49.90
2010,11,15,19,13,46.70
2010,11,15,19,14,32.20
2010,11,15,19,15,45.10
2010,11,15,19,16,29.00
2010,11,15,19,17,33.80
2010,11,15,19,18,33.80
2010,11,15,19,19,35.40
2010,11,15,19,20,40.20
2010,11,15,19,21,46.70
2010,11,15,19,22,38.60
2010,11,15,19,23,41.80
2010,11,15,19,24,45.10
2010,11,15,19,25,49.90
2010,11,15,19,26,43.50
2010,11,15,19,27,53.10
2010,11,15,19,28,61.20
2010,11,15,19,29,48.30
2010,11,15,19,30,49.90